Location: Irma
(52.9170°N, 111.2330°W)
Time: 13:34:17
(UTC-06:00)

Amateur Radio Satellites - All Passes

Search period start: 29 March 2015 13:04
Search period end: 30 March 2015 13:04
Location: Irma, 52.9170°N, 111.2330°W

Satellite Date Start Highest point End Downlink Frequencies (MHz)
Time Altitude Azimuth
POLYITAN 1 29 Mar 13:05:03 13:06:57 12° 275° (W) 13:08:40 437.675
YUBILEINY 29 Mar 13:16:41 13:23:40 29° 79° (E) 13:30:55 435.215
Oscar 19 29 Mar 13:20:45 13:25:43 54° 67° (ENE) 13:30:45 437.125/150
JAS-2 29 Mar 13:22:39 13:24:53 12° 29° (NNE) 13:27:22 435.910
Oscar 11 29 Mar 13:22:59 13:24:29 11° 308° (NW) 13:25:50 145.826/435.025
BEESAT 2 29 Mar 13:24:23 13:28:14 35° 327° (NNW) 13:32:06 435.950
FUNcube-1 29 Mar 13:32:34 13:35:04 15° 304° (NW) 13:37:27 145.935
Gurwin Techsat 1B 29 Mar 13:36:38 13:40:59 27° 58° (ENE) 13:45:26 435.225
UWE-3 29 Mar 13:37:25 13:39:08 12° 306° (NW) 13:40:43 435.000/436.395/437.385
TISAT 1 29 Mar 13:40:07 13:44:12 48° 99° (E) 13:48:17 437.305
ITUPSAT 1 29 Mar 13:40:10 13:41:27 11° 82° (E) 13:43:01 437.325
CUBEBUG 1 29 Mar 13:41:25 13:45:37 47° 292° (WNW) 13:49:45 437.445
VELOX 1 29 Mar 13:41:38 13:45:24 28° 298° (WNW) 13:49:08 145.980
ZACube-1 29 Mar 13:46:07 13:47:47 12° 307° (NW) 13:49:18 437.345
AISAT 29 Mar 13:46:23 13:50:03 25° 299° (WNW) 13:53:36 437.250
50 SAT 29 Mar 13:46:53 13:49:57 21° 299° (WNW) 13:52:55 437.505
SPROUT 29 Mar 13:50:20 13:54:38 71° 103° (ESE) 13:58:55 437.525
AO-7 29 Mar 13:56:56 14:03:12 25° 40° (NE) 14:09:38 29.400- 29.500
BEESAT 3 29 Mar 14:02:27 14:05:49 23° 337° (NNW) 14:09:10 437.485
HO-68 29 Mar 14:06:50 14:09:38 12° 330° (NNW) 14:12:13 435.675
ESTCUBE 1 29 Mar 14:15:51 14:19:37 25° 299° (WNW) 14:23:16 437.505/2401.250
HORYU 2 29 Mar 14:19:05 14:21:39 16° 54° (NE) 14:24:21 437.375
SWISSCUBE 29 Mar 14:25:59 14:30:11 30° 94° (E) 14:34:23 437.505
ITAMSAT 1 29 Mar 14:26:02 14:31:13 70° 71° (ENE) 14:36:27 435.822/435.867
BEESAT 29 Mar 14:28:57 14:33:08 29° 93° (E) 14:37:20 436.000
AIST 1 29 Mar 14:31:30 14:34:19 17° 60° (ENE) 14:37:13
O/OREOS (USA 219) 29 Mar 14:36:25 14:40:57 60° 246° (WSW) 14:45:25 437.305
AIST 2 29 Mar 14:36:52 14:40:35 27° 334° (NNW) 14:44:19 435.215
PCSat 29 Mar 14:42:48 14:46:05 17° 107° (ESE) 14:49:34 145.827
Oscar 19 29 Mar 15:01:03 15:05:25 27° 268° (W) 15:09:46 437.125/150
JAS-2 29 Mar 15:01:29 15:07:37 31° 53° (NE) 15:14:14 435.910
BEESAT 2 29 Mar 15:04:39 15:07:28 17° 350° (N) 15:10:17 435.950
STARS 29 Mar 15:10:34 15:11:32 11° 83° (E) 15:12:43 437.465
YUBILEINY 29 Mar 15:10:47 15:19:39 84° 282° (WNW) 15:28:34 435.215
Gurwin Techsat 1B 29 Mar 15:15:22 15:20:39 64° 258° (WSW) 15:25:58 435.225
ITUPSAT 1 29 Mar 15:15:34 15:20:24 69° 103° (ESE) 15:25:11 437.325
TISAT 1 29 Mar 15:16:22 15:19:48 24° 298° (WNW) 15:23:09 437.305
SPROUT 29 Mar 15:27:18 15:30:19 18° 302° (WNW) 15:33:13 437.525
BEESAT 3 29 Mar 15:42:35 15:45:12 16° 1° (N) 15:47:48 437.485
AO-7 29 Mar 15:46:36 15:54:49 70° 63° (ENE) 16:03:06 29.400- 29.500
HORYU 2 29 Mar 15:53:15 15:57:43 86° 71° (ENE) 16:02:13 437.375
SWISSCUBE 29 Mar 16:03:39 16:08:15 46° 294° (WNW) 16:12:48 437.505
BEESAT 29 Mar 16:06:35 16:11:12 46° 293° (WNW) 16:15:45 436.000
ITAMSAT 1 29 Mar 16:07:13 16:11:17 22° 271° (W) 16:15:16 435.822/435.867
AIST 1 29 Mar 16:08:14 16:12:35 72° 261° (W) 16:16:51
KKS-1 29 Mar 16:12:44 16:17:08 56° 101° (E) 16:21:31 437.445
AIST 2 29 Mar 16:17:37 16:20:28 17° 357° (N) 16:23:18 435.215
PCSat 29 Mar 16:23:21 16:28:47 80° 127° (SE) 16:34:15 145.827
BEESAT 2 29 Mar 16:44:03 16:47:01 18° 14° (NNE) 16:50:00 435.950
STARS 29 Mar 16:44:27 16:48:53 75° 104° (ESE) 16:53:17 437.465
JAS-2 29 Mar 16:44:46 16:51:55 84° 255° (WSW) 16:59:47 435.910
CUTE-I 29 Mar 16:50:17 16:53:37 17° 51° (NE) 16:57:05 437.470
Cubesat XI-IV 29 Mar 16:50:27 16:53:51 18° 51° (NE) 16:57:22 437.490
ITUPSAT 1 29 Mar 16:54:11 16:57:54 22° 303° (WNW) 17:01:31 437.325
Gurwin Techsat 1B 29 Mar 17:00:03 17:01:52 11° 280° (W) 17:03:22 435.225
YUBILEINY 29 Mar 17:10:48 17:18:05 27° 308° (NW) 17:25:11 435.215
BEESAT 3 29 Mar 17:21:06 17:24:33 24° 24° (NNE) 17:27:59 437.485
HORYU 2 29 Mar 17:32:36 17:35:05 14° 274° (W) 17:37:24 437.375
HO-68 29 Mar 17:37:09 17:38:26 11° 25° (NNE) 17:39:54 435.675
AO-7 29 Mar 17:40:46 17:48:19 36° 266° (W) 17:55:45 29.400- 29.500
BEESAT 29 Mar 17:47:31 17:48:00 10° 313° (NW) 17:48:18 436.000
MOZHAYETS 4 29 Mar 17:48:46 17:53:10 39° 96° (E) 17:57:33
KKS-1 29 Mar 17:49:56 17:53:30 23° 300° (WNW) 17:56:59 437.445
RS-15 29 Mar 17:51:10 17:54:45 13° 93° (E) 17:59:12 29.354- 29.394
AIST 2 29 Mar 17:56:58 18:00:25 23° 21° (NNE) 18:03:52 435.215
PCSat 29 Mar 18:07:55 18:12:46 32° 329° (NNW) 18:17:38 145.827
STARS 29 Mar 18:21:49 18:24:55 19° 303° (WNW) 18:27:54 437.465
BEESAT 2 29 Mar 18:22:06 18:26:07 44° 37° (NE) 18:30:07 435.950
CUTE-I 29 Mar 18:27:37 18:32:57 75° 71° (ENE) 18:38:21 437.470
Cubesat XI-IV 29 Mar 18:27:51 18:33:13 76° 71° (ENE) 18:38:37 437.490
JAS-2 29 Mar 18:32:42 18:38:16 23° 279° (W) 18:43:57 435.910
AUBIESAT-1 29 Mar 18:36:48 18:41:09 33° 100° (E) 18:45:29 437.475
PRISM 29 Mar 18:45:47 18:46:16 10° 83° (E) 18:47:00 437.425
STRAND 1 29 Mar 18:53:56 18:55:14 11° 81° (E) 18:56:48 437.568
SO-50 29 Mar 18:58:27 19:01:05 15° 112° (ESE) 19:03:55 436.795
BEESAT 3 29 Mar 18:58:58 19:03:09 86° 46° (NE) 19:07:16 437.485
M-CUBED/EXP-1 PRIME 29 Mar 19:01:14 19:06:03 56° 107° (ESE) 19:10:48 437.505
HO-68 29 Mar 19:18:06 19:23:56 29° 50° (NE) 19:29:54 435.675
MOZHAYETS 4 29 Mar 19:26:09 19:30:22 33° 296° (WNW) 19:34:30
GONETS M04 29 Mar 19:29:19 19:37:09 40° 85° (E) 19:45:09
AIST 2 29 Mar 19:35:26 19:39:44 69° 43° (NE) 19:43:57 435.215
BRITE-PL 29 Mar 19:36:11 19:39:40 23° 62° (ENE) 19:43:03 437.365/2234.400
CUBESAT XI-V 29 Mar 19:36:32 19:40:56 41° 97° (E) 19:45:18 437.345
COMPASS 1 29 Mar 19:37:16 19:38:09 11° 52° (NE) 19:39:12 437.405
PCSat 29 Mar 19:54:03 19:57:50 19° 354° (N) 20:01:37 145.827
RS-15 29 Mar 19:54:10 20:04:24 51° 117° (ESE) 20:15:00 29.354- 29.394
BEESAT 2 29 Mar 20:00:23 20:04:14 36° 237° (WSW) 20:08:00 435.950
CANX-2 29 Mar 20:05:11 20:08:38 25° 62° (ENE) 20:12:11 2200.000
DOVE 4 29 Mar 20:09:01 20:12:10 21° 61° (ENE) 20:15:21 437.250
CUTE-I 29 Mar 20:09:37 20:13:41 21° 272° (W) 20:17:38 437.470
Cubesat XI-IV 29 Mar 20:09:56 20:13:59 21° 272° (W) 20:17:54 437.490
AUBIESAT-1 29 Mar 20:11:27 20:16:06 46° 299° (WNW) 20:20:40 437.475
PRISM 29 Mar 20:18:24 20:22:38 76° 105° (ESE) 20:26:48 437.425
CUTE 1.7 + AOD 2 29 Mar 20:18:47 20:22:28 30° 64° (ENE) 20:26:14 437.475
GOMX 1 29 Mar 20:20:48 20:24:46 35° 67° (ENE) 20:28:38 467.674
DELFI C3 29 Mar 20:23:19 20:23:51 10° 53° (NE) 20:24:33 145.870
STRAND 1 29 Mar 20:30:29 20:35:36 65° 103° (ESE) 20:40:41 437.568
SO-50 29 Mar 20:36:13 20:40:55 77° 131° (SE) 20:45:47 436.795
M-CUBED/EXP-1 PRIME 29 Mar 20:36:29 20:40:41 29° 305° (NW) 20:44:49 437.505
BEESAT 3 29 Mar 20:38:03 20:40:42 16° 245° (WSW) 20:43:12 437.485
AAUSAT CUBESAT 2 29 Mar 20:42:03 20:45:44 31° 65° (ENE) 20:49:30 437.432
UKube-1 29 Mar 20:43:48 20:44:47 11° 51° (NE) 20:45:56 .
SEEDS 29 Mar 20:47:08 20:51:10 45° 68° (ENE) 20:55:15 437.485
DX 1 29 Mar 20:53:13 20:55:17 13° 53° (NE) 20:57:29 434.975-435.025
HO-68 29 Mar 21:03:47 21:11:00 87° 251° (WSW) 21:18:16 435.675
COMPASS 1 29 Mar 21:08:56 21:13:04 60° 71° (ENE) 21:17:15 437.405
Oscar 11 29 Mar 21:09:48 21:13:36 31° 64° (ENE) 21:17:29 145.826/435.025
BRITE-PL 29 Mar 21:13:28 21:18:00 55° 260° (W) 21:22:15 437.365/2234.400
CUBESAT XI-V 29 Mar 21:14:09 21:18:19 32° 296° (WNW) 21:22:23 437.345
AIST 2 29 Mar 21:14:38 21:17:58 22° 243° (WSW) 21:21:11 435.215
FUNcube-1 29 Mar 21:21:41 21:24:55 23° 61° (ENE) 21:28:15 145.935
CINEMA 3 29 Mar 21:22:15 21:26:17 51° 70° (ENE) 21:30:21 145.822/145.860
GONETS M04 29 Mar 21:25:08 21:33:45 61° 289° (WNW) 21:42:27
UWE-3 29 Mar 21:26:28 21:30:04 29° 64° (ENE) 21:33:44 435.000/436.395/437.385
50 SAT 29 Mar 21:31:26 21:32:48 12° 55° (NE) 21:34:17 437.505
CUBEBUG 2 29 Mar 21:31:59 21:35:49 38° 67° (ENE) 21:39:43 437.445
VELOX 1 29 Mar 21:34:09 21:36:38 15° 55° (NE) 21:39:14 145.980
ZACube-1 29 Mar 21:34:17 21:37:51 29° 64° (ENE) 21:41:31 437.345
DANDE 29 Mar 21:36:03 21:38:21 24° 97° (E) 21:40:35 436.750
AISAT 29 Mar 21:38:39 21:41:25 17° 56° (NE) 21:44:17 437.250
PCSat 29 Mar 21:38:50 21:43:08 23° 20° (NNE) 21:47:28 145.827
CANX-2 29 Mar 21:40:16 21:44:22 47° 262° (W) 21:48:32 2200.000
DOVE 4 29 Mar 21:45:30 21:49:42 55° 260° (W) 21:53:49 437.250
AUBIESAT-1 29 Mar 21:48:03 21:49:55 12° 319° (NW) 21:51:39 437.475
DELFI C3 29 Mar 21:54:14 21:58:15 60° 72° (ENE) 22:02:20 145.870
CUTE 1.7 + AOD 2 29 Mar 21:54:20 21:58:20 38° 264° (W) 22:02:21 437.475
PRISM 29 Mar 21:54:51 21:57:39 17° 303° (WNW) 22:00:20 437.425
GOMX 1 29 Mar 21:59:05 22:03:01 31° 265° (W) 22:06:46 467.674
RS-15 29 Mar 22:05:38 22:16:34 69° 324° (NW) 22:27:52 29.354- 29.394
ESTCUBE 1 29 Mar 22:09:11 22:12:10 18° 56° (ENE) 22:15:15 437.505/2401.250
STRAND 1 29 Mar 22:10:17 22:14:28 25° 302° (WNW) 22:18:33 437.568
UKube-1 29 Mar 22:15:52 22:20:07 57° 70° (ENE) 22:24:25 .
AAUSAT CUBESAT 2 29 Mar 22:17:28 22:21:21 35° 264° (W) 22:25:14 437.432
SO-50 29 Mar 22:17:36 22:21:56 33° 334° (NNW) 22:26:22 436.795
HUMSAT D 29 Mar 22:21:46 22:25:39 43° 68° (ENE) 22:29:37 437.325/437.525
SEEDS 29 Mar 22:23:41 22:27:12 24° 268° (W) 22:30:42 437.485
DX 1 29 Mar 22:26:30 22:30:52 75° 73° (ENE) 22:35:15 434.975-435.025
CUSAT 1 29 Mar 22:26:44 22:29:16 40° 287° (WNW) 22:31:48 437.405
Oscar 11 29 Mar 22:45:42 22:49:45 37° 264° (W) 22:53:48 145.826/435.025
COMPASS 1 29 Mar 22:46:11 22:49:13 18° 272° (W) 22:52:08 437.405
HO-68 29 Mar 22:54:21 22:59:51 22° 274° (W) 23:05:09 435.675
FUNcube-1 29 Mar 22:56:59 23:01:02 50° 261° (W) 23:05:07 145.935
CINEMA 3 29 Mar 23:00:40 23:03:51 20° 270° (W) 23:06:58 145.822/145.860
UWE-3 29 Mar 23:02:42 23:06:34 36° 264° (W) 23:10:28 435.000/436.395/437.385
50 SAT 29 Mar 23:03:08 23:07:03 76° 75° (ENE) 23:11:02 437.505
TISAT 1 29 Mar 23:05:06 23:07:08 14° 55° (NE) 23:09:17 437.305
CUBEBUG 1 29 Mar 23:07:13 23:11:23 43° 67° (ENE) 23:15:34 437.445
VELOX 1 29 Mar 23:08:09 23:12:37 85° 71° (ENE) 23:17:04 145.980
POLYITAN 1 29 Mar 23:08:28 23:08:51 10° 83° (E) 23:09:28 437.675
CUBEBUG 2 29 Mar 23:09:03 23:12:40 28° 267° (W) 23:16:16 437.445
UNISAT 6 29 Mar 23:10:05 23:13:30 21° 90° (E) 23:17:03 437.425
ZACube-1 29 Mar 23:10:18 23:14:10 37° 264° (W) 23:18:05 437.345
AISAT 29 Mar 23:13:02 23:17:30 86° 259° (W) 23:21:58 437.250
SPROUT 29 Mar 23:16:01 23:18:56 19° 59° (ENE) 23:21:58 437.525
YUBILEINY 29 Mar 23:17:02 23:23:31 22° 47° (NE) 23:30:11 435.215
TIGRISAT 29 Mar 23:19:57 23:23:39 25° 92° (E) 23:27:28 435.000
DANDE 29 Mar 23:20:09 23:21:44 14° 296° (WNW) 23:23:12 436.750
PCSat 29 Mar 23:22:16 23:27:40 58° 44° (NE) 23:33:02 145.827
GONETS M04 29 Mar 23:26:52 23:32:57 19° 317° (NW) 23:38:47
DELFI C3 29 Mar 23:31:01 23:33:51 18° 271° (W) 23:36:37 145.870
QB50P1 29 Mar 23:43:10 23:46:26 22° 91° (E) 23:49:45 145.935-145.965
ESTCUBE 1 29 Mar 23:43:57 23:48:32 83° 255° (WSW) 23:53:08 437.505/2401.250
DUCHIFAT 1 29 Mar 23:44:46 23:48:01 22° 91° (E) 23:51:21 145.980
ANTELSAT 29 Mar 23:50:07 23:54:30 45° 99° (E) 23:58:58 437.575/2403.000
UKube-1 29 Mar 23:53:20 23:56:39 20° 269° (W) 23:59:53 .
QB50P2 29 Mar 23:57:53 00:01:36 29° 94° (E) 00:05:22 145.880/145.840
HUMSAT D 29 Mar 23:58:15 00:01:39 24° 268° (W) 00:05:02 437.325/437.525
SO-50 30 Mar 00:00:06 00:03:48 21° 358° (N) 00:07:34 436.795
SWISSCUBE 30 Mar 00:03:41 00:05:59 14° 51° (NE) 00:08:27 437.505
DX 1 30 Mar 00:04:54 00:07:42 16° 272° (W) 00:10:21 434.975-435.025
BEESAT 30 Mar 00:06:37 00:08:52 14° 51° (NE) 00:11:17 436.000
ISS 30 Mar 00:15:19 00:18:00 24° 150° (SSE) 00:20:43 145.825
RS-15 30 Mar 00:20:28 00:31:02 46° 356° (N) 00:42:00 29.354- 29.394
BUGSAT 1 30 Mar 00:23:11 00:26:55 35° 97° (E) 00:30:40 437.445
POPSAT HIP 1 30 Mar 00:26:19 00:30:29 52° 100° (E) 00:34:38 437.405
NANOSAT C BR1 30 Mar 00:36:42 00:40:55 66° 102° (ESE) 00:45:09 145.865
TISAT 1 30 Mar 00:38:06 00:42:19 80° 71° (ENE) 00:46:33 437.305
50 SAT 30 Mar 00:40:31 00:42:33 13° 274° (W) 00:44:28 437.505
POLYITAN 1 30 Mar 00:41:23 00:45:39 74° 103° (ESE) 00:49:54 437.675
CUBEBUG 1 30 Mar 00:44:08 00:47:56 27° 267° (W) 00:51:41 437.445
UNISAT 6 30 Mar 00:46:12 00:50:42 61° 289° (WNW) 00:55:16 437.425
VELOX 1 30 Mar 00:47:19 00:49:51 14° 274° (W) 00:52:14 145.980
SPROUT 30 Mar 00:50:20 00:54:38 70° 257° (WSW) 00:58:56 437.525
ITUPSAT 1 30 Mar 00:51:38 00:55:38 27° 60° (ENE) 00:59:42 437.325
AISAT 30 Mar 00:52:48 00:54:53 13° 275° (W) 00:56:47 437.250
TIGRISAT 30 Mar 00:56:16 01:00:41 51° 291° (WNW) 01:05:10 435.000
PCSat 30 Mar 01:06:02 01:10:54 34° 245° (WSW) 01:15:42 145.827
YUBILEINY 30 Mar 01:13:30 01:22:22 70° 75° (ENE) 01:31:09 435.215
QB50P1 30 Mar 01:18:30 01:22:38 51° 290° (WNW) 01:26:44 145.935-145.965
DUCHIFAT 1 30 Mar 01:20:03 01:24:09 50° 291° (WNW) 01:28:15 145.980
ESTCUBE 1 30 Mar 01:24:05 01:26:14 13° 276° (W) 01:28:11 437.505/2401.250
ANTELSAT 30 Mar 01:27:13 01:31:10 29° 297° (WNW) 01:35:08 437.575/2403.000
Oscar 19 30 Mar 01:27:58 01:29:50 12° 82° (E) 01:31:57 437.125/150
QB50P2 30 Mar 01:33:40 01:37:37 37° 293° (WNW) 01:41:31 145.880/145.840
SWISSCUBE 30 Mar 01:38:17 01:43:04 66° 70° (ENE) 01:47:51 437.505
BEESAT 30 Mar 01:41:10 01:45:55 65° 70° (ENE) 01:50:43 436.000
SO-50 30 Mar 01:41:30 01:45:46 28° 22° (NNE) 01:50:05 436.795
KKS-1 30 Mar 01:42:04 01:45:03 18° 57° (ENE) 01:48:07 437.445
ISS 30 Mar 01:50:50 01:54:04 62° 168° (SSE) 01:57:17 145.825
BUGSAT 1 30 Mar 01:58:50 02:02:22 29° 296° (WNW) 02:05:50 437.445
POPSAT HIP 1 30 Mar 02:02:45 02:06:06 23° 299° (WNW) 02:09:24 437.405
STARS 30 Mar 02:12:15 02:15:34 22° 59° (ENE) 02:18:59 437.465
NANOSAT C BR1 30 Mar 02:13:22 02:16:25 19° 301° (WNW) 02:19:22 145.865
TISAT 1 30 Mar 02:16:25 02:18:45 14° 274° (W) 02:20:56 437.305
POLYITAN 1 30 Mar 02:18:16 02:21:08 18° 302° (WNW) 02:23:55 437.675
UNISAT 6 30 Mar 02:24:55 02:26:43 12° 308° (NW) 02:28:21 437.425
ITUPSAT 1 30 Mar 02:28:34 02:33:17 54° 259° (W) 02:38:03 437.325
ITAMSAT 1 30 Mar 02:33:57 02:36:55 16° 85° (E) 02:40:04 435.822/435.867
RS-15 30 Mar 02:34:50 02:45:54 58° 27° (NNE) 02:57:31 29.354- 29.394
TIGRISAT 30 Mar 02:35:52 02:36:35 10° 310° (NW) 02:37:05 435.000
Oscar 19 30 Mar 03:05:06 03:10:17 69° 104° (ESE) 03:15:28 437.125/150
YUBILEINY 30 Mar 03:10:56 03:18:40 35° 278° (W) 03:26:12 435.215
KKS-1 30 Mar 03:16:46 03:21:13 77° 257° (WSW) 03:25:42 437.445
SWISSCUBE 30 Mar 03:17:44 03:21:25 21° 271° (W) 03:25:00 437.505
BEESAT 30 Mar 03:20:34 03:24:15 21° 271° (W) 03:27:51 436.000
SO-50 30 Mar 03:22:02 03:27:00 79° 44° (NE) 03:31:59 436.795
MOZHAYETS 4 30 Mar 03:22:13 03:24:33 14° 53° (NE) 03:27:03
Gurwin Techsat 1B 30 Mar 03:25:27 03:30:14 33° 94° (E) 03:35:03 435.225
ISS 30 Mar 03:27:08 03:30:22 64° 189° (S) 03:33:35 145.825
GONETS M04 30 Mar 03:36:04 03:37:26 10° 24° (NNE) 03:39:06
HORYU 2 30 Mar 03:40:39 03:42:01 11° 83° (E) 03:43:36 437.375
AO-7 30 Mar 03:43:13 03:47:01 14° 78° (ENE) 03:51:20 29.400- 29.500
STARS 30 Mar 03:47:24 03:51:44 59° 258° (WSW) 03:56:05 437.465
JAS-2 30 Mar 03:49:39 03:53:45 15° 75° (ENE) 03:58:06 435.910
AUBIESAT-1 30 Mar 03:57:27 04:00:28 19° 49° (NE) 04:03:43 437.475
ITAMSAT 1 30 Mar 04:12:04 04:17:18 86° 106° (ESE) 04:22:30 435.822/435.867
M-CUBED/EXP-1 PRIME 30 Mar 04:21:35 04:25:16 29° 55° (NE) 04:29:16 437.505
AIST 1 30 Mar 04:43:45 04:48:00 48° 95° (E) 04:52:15
Oscar 19 30 Mar 04:45:06 04:49:15 25° 303° (WNW) 04:53:20 437.125/150
RS-15 30 Mar 04:47:40 04:58:57 71° 235° (SW) 05:10:43 29.354- 29.394
O/OREOS (USA 219) 30 Mar 04:54:23 04:58:47 47° 112° (ESE) 05:03:15 437.305
MOZHAYETS 4 30 Mar 04:56:27 05:01:04 73° 73° (ENE) 05:05:44
KKS-1 30 Mar 04:57:13 04:58:44 11° 277° (W) 05:00:03 437.445
SO-50 30 Mar 05:03:13 05:07:08 23° 244° (WSW) 05:10:57 436.795
ISS 30 Mar 05:03:39 05:06:27 26° 208° (SSW) 05:09:13 145.825
Gurwin Techsat 1B 30 Mar 05:05:19 05:10:25 47° 294° (WNW) 05:15:29 435.225
CUBESAT XI-V 30 Mar 05:10:58 05:13:33 15° 54° (NE) 05:16:17 437.345
HORYU 2 30 Mar 05:15:02 05:19:34 76° 104° (ESE) 05:24:05 437.375
AUBIESAT-1 30 Mar 05:30:31 05:34:43 85° 249° (WSW) 05:39:18 437.475
GONETS M04 30 Mar 05:30:48 05:38:17 30° 55° (NE) 05:45:57
JAS-2 30 Mar 05:32:53 05:40:41 61° 99° (E) 05:47:57 435.910
AO-7 30 Mar 05:33:50 05:42:01 58° 103° (ESE) 05:50:11 29.400- 29.500
PRISM 30 Mar 05:40:30 05:43:30 20° 59° (ENE) 05:46:36 437.425
ITAMSAT 1 30 Mar 05:52:28 05:56:15 20° 306° (NW) 05:59:56 435.822/435.867
M-CUBED/EXP-1 PRIME 30 Mar 05:55:58 05:59:59 46° 256° (WSW) 06:04:22 437.505
STRAND 1 30 Mar 06:14:14 06:18:43 32° 61° (ENE) 06:23:16 437.568
AIST 1 30 Mar 06:22:18 06:25:56 24° 295° (WNW) 06:29:32
O/OREOS (USA 219) 30 Mar 06:34:16 06:38:25 32° 313° (NW) 06:42:33 437.305
MOZHAYETS 4 30 Mar 06:35:40 06:38:53 18° 273° (W) 06:42:00
CUTE-I 30 Mar 06:39:24 06:43:03 19° 87° (E) 06:46:50 437.470
Cubesat XI-IV 30 Mar 06:39:47 06:43:30 19° 87° (E) 06:47:20 437.490
CUBESAT XI-V 30 Mar 06:45:37 06:50:20 78° 73° (ENE) 06:55:04 437.345
Gurwin Techsat 1B 30 Mar 06:47:29 06:49:18 12° 315° (NW) 06:50:55 435.225
HORYU 2 30 Mar 06:52:34 06:55:46 19° 303° (WNW) 06:58:53 437.375
RS-15 30 Mar 07:01:12 07:09:36 23° 259° (WSW) 07:17:42 29.354- 29.394
AUBIESAT-1 30 Mar 07:08:21 07:10:25 13° 271° (W) 07:12:22 437.475
CUSAT 1 30 Mar 07:12:31 07:15:39 23° 67° (ENE) 07:19:33 437.405
PRISM 30 Mar 07:14:24 07:18:36 65° 257° (WSW) 07:22:50 437.425
JAS-2 30 Mar 07:18:11 07:25:29 42° 301° (WNW) 07:32:19 435.910
AO-7 30 Mar 07:26:57 07:34:46 47° 305° (NW) 07:42:31 29.400- 29.500
GONETS M04 30 Mar 07:27:31 07:36:24 85° 261° (W) 07:45:16
STRAND 1 30 Mar 07:52:46 07:57:47 50° 261° (W) 08:02:48 437.568
DANDE 30 Mar 08:06:49 08:10:21 48° 74° (ENE) 08:15:01 436.750
O/OREOS (USA 219) 30 Mar 08:18:26 08:19:22 10° 337° (NNW) 08:20:13 437.305
CUTE-I 30 Mar 08:18:31 08:23:52 82° 288° (WNW) 08:29:12 437.470
Cubesat XI-IV 30 Mar 08:18:57 08:24:20 81° 289° (WNW) 08:29:40 437.490
CUBESAT XI-V 30 Mar 08:25:16 08:28:25 17° 274° (W) 08:31:25 437.345
HO-68 30 Mar 08:27:03 08:29:57 13° 78° (ENE) 08:33:17 435.675
PHONESAT 2.4 30 Mar 08:31:10 08:32:03 11° 174° (S) 08:32:58 2401.200-2431.200
CUSAT 1 30 Mar 08:54:42 08:58:31 48° 261° (W) 09:03:33 437.405
JAS-2 30 Mar 09:04:26 09:08:39 15° 323° (NW) 09:12:33 435.910
BRITE-PL 30 Mar 09:11:51 09:15:21 26° 93° (E) 09:19:00 437.365/2234.400
CANX-2 30 Mar 09:19:58 09:23:14 21° 90° (E) 09:26:34 2200.000
AO-7 30 Mar 09:20:28 09:25:45 19° 329° (NNW) 09:30:50 29.400- 29.500
ANTELSAT 30 Mar 09:21:10 09:23:21 14° 54° (NE) 09:25:42 437.575/2403.000
GONETS M04 30 Mar 09:25:27 09:32:08 24° 284° (WNW) 09:38:34
CUTE 1.7 + AOD 2 30 Mar 09:33:33 09:37:08 25° 92° (E) 09:40:46 437.475
DOVE 4 30 Mar 09:38:11 09:41:38 23° 92° (E) 09:45:15 437.250
DANDE 30 Mar 09:50:42 09:53:34 19° 265° (W) 09:56:54 436.750
POPSAT HIP 1 30 Mar 09:51:38 09:53:51 14° 56° (NE) 09:56:12 437.405
GOMX 1 30 Mar 09:53:33 09:57:36 43° 99° (E) 10:01:49 467.674
AAUSAT CUBESAT 2 30 Mar 09:54:31 09:58:02 25° 92° (E) 10:01:35 437.432
CUTE-I 30 Mar 09:59:38 10:03:17 19° 308° (NW) 10:06:48 437.470
Cubesat XI-IV 30 Mar 10:00:07 10:03:45 18° 308° (NW) 10:07:14 437.490
SEEDS 30 Mar 10:01:10 10:05:11 38° 96° (E) 10:09:13 437.485
NANOSAT C BR1 30 Mar 10:01:16 10:03:57 17° 58° (ENE) 10:06:45 145.865
POLYITAN 1 30 Mar 10:06:06 10:09:01 19° 59° (ENE) 10:12:03 437.675
HO-68 30 Mar 10:12:25 10:19:31 58° 101° (ESE) 10:26:37 435.675
UNISAT 6 30 Mar 10:15:02 10:18:57 36° 65° (ENE) 10:22:59 437.425
COMPASS 1 30 Mar 10:22:05 10:26:16 50° 99° (E) 10:30:25 437.405
TIGRISAT 30 Mar 10:24:41 10:28:43 42° 67° (ENE) 10:32:51 435.000
Oscar 11 30 Mar 10:26:53 10:30:36 27° 93° (E) 10:34:21 145.826/435.025
BEESAT 3 30 Mar 10:36:20 10:39:28 21° 117° (ESE) 10:42:41 437.485
FUNcube-1 30 Mar 10:39:30 10:42:47 21° 90° (E) 10:46:12 145.935
QB50P1 30 Mar 10:41:39 10:45:29 35° 66° (ENE) 10:49:22 145.935-145.965
DUCHIFAT 1 30 Mar 10:42:56 10:46:45 36° 66° (ENE) 10:50:38 145.980
UWE-3 30 Mar 10:46:02 10:49:51 28° 94° (E) 10:53:46 435.000/436.395/437.385
CINEMA 3 30 Mar 10:47:28 10:51:46 56° 100° (E) 10:56:16 145.822/145.860
BRITE-PL 30 Mar 10:50:10 10:54:06 40° 292° (WNW) 10:58:07 437.365/2234.400
ZACube-1 30 Mar 10:52:30 10:56:13 27° 93° (E) 11:00:04 437.345
CUBEBUG 2 30 Mar 10:52:58 10:57:05 38° 97° (E) 11:01:19 437.445
ANTELSAT 30 Mar 10:55:13 10:59:30 81° 74° (ENE) 11:03:54 437.575/2403.000
VELOX 1 30 Mar 10:55:15 10:56:09 11° 83° (E) 10:57:16 145.980
CANX-2 30 Mar 10:55:17 10:59:31 55° 290° (WNW) 11:03:45 2200.000
QB50P2 30 Mar 10:56:33 11:00:37 49° 69° (ENE) 11:04:44 145.880/145.840
AISAT 30 Mar 10:59:39 11:01:23 12° 84° (E) 11:03:19 437.250
DELFI C3 30 Mar 11:03:06 11:07:04 45° 98° (E) 11:11:02 145.870
CUTE 1.7 + AOD 2 30 Mar 11:09:09 11:13:17 45° 292° (WNW) 11:17:24 437.475
AO-7 30 Mar 11:12:56 11:15:15 11° 358° (N) 11:17:34 29.400- 29.500
DOVE 4 30 Mar 11:15:34 11:19:41 48° 290° (WNW) 11:23:58 437.250
AIST 2 30 Mar 11:18:21 11:21:21 19° 116° (ESE) 11:24:28 435.215
BUGSAT 1 30 Mar 11:18:54 11:22:59 58° 71° (ENE) 11:27:01 437.445
POPSAT HIP 1 30 Mar 11:24:56 11:29:10 87° 75° (ENE) 11:33:25 437.405
AAUSAT CUBESAT 2 30 Mar 11:29:49 11:33:53 44° 292° (WNW) 11:37:54 437.432
ESTCUBE 1 30 Mar 11:32:03 11:34:25 14° 85° (E) 11:36:57 437.505/2401.250
GOMX 1 30 Mar 11:32:06 11:35:39 26° 296° (WNW) 11:39:16 467.674
UKube-1 30 Mar 11:33:30 11:37:40 44° 99° (E) 11:41:49 .
NANOSAT C BR1 30 Mar 11:35:09 11:39:22 76° 256° (WSW) 11:43:36 145.865
HUMSAT D 30 Mar 11:35:24 11:39:20 36° 96° (E) 11:43:19 437.325/437.525
SEEDS 30 Mar 11:37:09 11:40:56 30° 296° (WNW) 11:44:40 437.485
BEESAT 2 30 Mar 11:37:11 11:41:16 58° 128° (SE) 11:45:23 435.950
POLYITAN 1 30 Mar 11:40:22 11:44:34 67° 258° (WSW) 11:48:47 437.675
O/OREOS (USA 219) 30 Mar 11:40:48 11:42:49 13° 28° (NNE) 11:44:55 437.305
DX 1 30 Mar 11:45:01 11:49:20 59° 102° (ESE) 11:53:36 434.975-435.025
UNISAT 6 30 Mar 11:51:56 11:55:49 32° 265° (W) 11:59:44 437.425
COMPASS 1 30 Mar 11:58:16 12:01:43 24° 298° (WNW) 12:05:06 437.405
HO-68 30 Mar 12:00:27 12:07:07 41° 303° (WNW) 12:13:42 435.675
TIGRISAT 30 Mar 12:02:00 12:05:40 27° 267° (W) 12:09:21 435.000
Oscar 11 30 Mar 12:02:48 12:06:57 43° 292° (WNW) 12:11:05 145.826/435.025
50 SAT 30 Mar 12:09:47 12:13:45 53° 100° (E) 12:17:43 437.505
BEESAT 3 30 Mar 12:13:03 12:17:11 68° 318° (NW) 12:21:20 437.485
FUNcube-1 30 Mar 12:15:13 12:19:29 57° 289° (WNW) 12:23:51 145.935
QB50P1 30 Mar 12:17:39 12:21:26 31° 265° (W) 12:25:12 145.935-145.965
DUCHIFAT 1 30 Mar 12:18:54 12:22:40 30° 265° (W) 12:26:24 145.980
UWE-3 30 Mar 12:22:24 12:26:32 41° 292° (WNW) 12:30:44 435.000/436.395/437.385
ITAMSAT 1 30 Mar 12:22:54 12:23:46 10° 44° (NE) 12:24:50 435.822/435.867
CINEMA 3 30 Mar 12:25:19 12:28:45 23° 299° (WNW) 12:32:13 145.822/145.860
CUBEBUG 1 30 Mar 12:26:16 12:30:18 36° 96° (E) 12:34:20 437.445
ZACube-1 30 Mar 12:28:38 12:32:46 43° 292° (WNW) 12:36:58 437.345
VELOX 1 30 Mar 12:29:12 12:33:38 74° 104° (ESE) 12:38:02 145.980
CUBEBUG 2 30 Mar 12:29:51 12:33:44 32° 295° (WNW) 12:37:42 437.445
YUBILEINY 30 Mar 12:30:09 12:35:00 17° 71° (ENE) 12:40:16 435.215
SPROUT 30 Mar 12:32:19 12:34:33 14° 86° (E) 12:36:56 437.525
QB50P2 30 Mar 12:33:25 12:36:49 23° 269° (W) 12:40:09 145.880/145.840
CANX-2 30 Mar 12:34:05 12:34:37 10° 309° (NW) 12:34:58 2200.000
AISAT 30 Mar 12:34:21 12:38:48 84° 105° (ESE) 12:43:13 437.250
ANTELSAT 30 Mar 12:34:31 12:37:00 14° 275° (W) 12:39:19 437.575/2403.000
DELFI C3 30 Mar 12:38:40 12:42:03 25° 297° (WNW) 12:45:23 145.870
Oscar 19 30 Mar 12:49:42 12:54:12 33° 62° (ENE) 12:58:48 437.125/150
AIST 2 30 Mar 12:55:12 12:59:30 79° 315° (NW) 13:03:51 435.215
BUGSAT 1 30 Mar 12:55:53 12:58:51 18° 270° (W) 13:01:43 437.445
